ANIK G1

Last updated on Oct. 31, 2020, 5:53 a.m. UTC

1 39127U 13014A   20304.62860802 -.00000069  00000-0  00000-0 0  9998
2 39127   0.0231 263.3577 0002730 337.5252 277.5421  1.00272116 27649
UTC
Height (km)
Latitude
Longitude
Inclination
Orbital Period
UTC large
Height (km)
Speed (km/s)
/
Latitude / Longitude
Inclination (degrees)
Orbital Period (minutes)
Azimuth
Elevation
Range (km)
Doppler Factor
iOS Compass Heading
iOS Angle

Next 30 passes for location: Hong Kong

Rise time Rise Azimuth (degrees) Set time Set Azimuth (degrees) Duration Max altitude (degrees)

No matching passes for this satellites